Location: Dos Palmas
(32.4468°N, 116.8732°W)
Time: 22:35:42
(UTC+00:00)

Cosmos 1603 - Pass Details

Date: 20 June 2021
Orbit: 832 x 858 km, 71.0° (Epoch: 01 August)

Event Time Altitude Azimuth Distance (km) Brightness Sun altitude
Exits shadow 08:28:58 49° 20° (NNE) 1,076 4.4 -33.3°
Drops below altitude 10° 08:33:03 10° 20° (NNE) 2,465 6.9 -33.1°
Sets 08:35:29 0° 21° (NNE) 3,400 7.9 -33.0°
